| time (UTC) | temp C | wind direction | speed KPH | gust KPH | rain 1hr cm | rain 24hr cm | rain mn cm | humidity % | barometer mb |
| 20260503202614 | 17 | 163 | 1.6 | 9.7 | 0.00 | 0.00 | 0.00 | 48 | 1010.4 |
| 20260503202106 | 17 | 245 | 4.8 | 9.7 | 0.00 | 0.00 | 0.00 | 48 | 1010.7 |
| 20260503201608 | 17 | 234 | 1.6 | 9.7 | 0.00 | 0.00 | 0.00 | 47 | 1010.8 |
| 20260503201105 | 17 | 289 | 3.2 | 9.7 | 0.00 | 0.00 | 0.00 | 47 | 1010.7 |
| 20260503200606 | 17 | 286 | 3.2 | 8.0 | 0.00 | 0.00 | 0.00 | 47 | 1011.1 |
| 20260503200339 | 17 | 76 | 3.2 | 8.0 | 0.00 | 0.00 | 0.00 | 46 | 1010.9 |
| 20260503195618 | 17 | 259 | 1.6 | 8.0 | 0.00 | 0.00 | 0.00 | 47 | 1011.4 |
| 20260503195110 | 17 | 143 | 8.0 | 11.3 | 0.00 | 0.00 | 0.00 | 47 | 1010.9 |
| 20260503194604 | 17 | 356 | 4.8 | 11.3 | 0.00 | 0.00 | 0.00 | 45 | 1011.0 |
| 20260503194103 | 17 | 56 | 3.2 | 9.7 | 0.00 | 0.00 | 0.00 | 47 | 1011.3 |
| 20260503193927 | 17 | 131 | 3.2 | 9.7 | 0.00 | 0.00 | 0.00 | 48 | 1010.9 |
| 20260503192604 | 17 | 248 | 1.6 | 11.3 | 0.00 | 0.00 | 0.00 | 47 | 1011.3 |
| 20260503192117 | 17 | 195 | 0.0 | 12.9 | 0.00 | 0.00 | 0.00 | 48 | 1011.6 |
| 20260503191603 | 17 | 179 | 1.6 | 12.9 | 0.00 | 0.00 | 0.00 | 47 | 1011.4 |
| 20260503191101 | 17 | 275 | 3.2 | 11.3 | 0.00 | 0.00 | 0.00 | 46 | 1011.3 |
| 20260503190603 | 17 | 251 | 3.2 | 9.7 | 0.00 | 0.00 | 0.00 | 46 | 1011.7 |
| 20260503185601 | 17 | 283 | 8.0 | 9.7 | 0.00 | 0.00 | 0.00 | 46 | 1011.9 |
| 20260503185319 | 17 | 327 | 0.0 | 9.7 | 0.00 | 0.00 | 0.00 | 49 | 1011.8 |
| 20260503184612 | 17 | 53 | 0.0 | 9.7 | 0.00 | 0.00 | 0.00 | 49 | 1011.9 |
| 20260503184059 | 17 | 274 | 4.8 | 9.7 | 0.00 | 0.00 | 0.00 | 47 | 1011.8 |
| 20260503183600 | 17 | 190 | 1.6 | 9.7 | 0.00 | 0.00 | 0.00 | 49 | 1012.2 |
| 20260503183101 | 17 | 290 | 3.2 | 9.7 | 0.00 | 0.00 | 0.00 | 49 | 1012.1 |
| 20260503182600 | 17 | 116 | 1.6 | 9.7 | 0.00 | 0.00 | 0.00 | 50 | 1012.2 |
| 20260503182058 | 16 | 295 | 4.8 | 9.7 | 0.00 | 0.00 | 0.00 | 49 | 1012.1 |
| 20260503181559 | 16 | 334 | 3.2 | 11.3 | 0.00 | 0.00 | 0.00 | 52 | 1012.3 |
| 20260503181106 | 16 | 96 | 4.8 | 11.3 | 0.00 | 0.00 | 0.00 | 52 | 1012.2 |
| 20260503180557 | 16 | 107 | 1.6 | 11.3 | 0.00 | 0.00 | 0.00 | 52 | 1012.5 |
| 20260503180058 | 16 | 218 | 3.2 | 11.3 | 0.00 | 0.00 | 0.00 | 49 | 1012.7 |
| 20260503175558 | 16 | 314 | 0.0 | 8.0 | 0.00 | 0.00 | 0.00 | 50 | 1012.6 |
| 20260503175055 | 16 | 341 | 6.4 | 8.0 | 0.00 | 0.00 | 0.00 | 50 | 1012.7 |
| 20260503174558 | 16 | 113 | 4.8 | 0.0 | 0.00 | 0.00 | 0.00 | 50 | 1012.9 |
| 20260503173538 | 16 | 311 | 3.2 | 9.7 | 0.00 | 0.00 | 0.00 | 50 | 1013.1 |
| 20260503173040 | 16 | 307 | 3.2 | 14.5 | 0.00 | 0.00 | 0.00 | 50 | 1012.9 |
| 20260503172545 | 16 | 295 | 1.6 | 14.5 | 0.00 | 0.00 | 0.00 | 50 | 1013.0 |
| 20260503172045 | 16 | 189 | 3.2 | 14.5 | 0.00 | 0.00 | 0.00 | 51 | 1012.9 |
| 20260503171537 | 15 | 143 | 1.6 | 9.7 | 0.00 | 0.00 | 0.00 | 53 | 1013.1 |
| 20260503171037 | 15 | 148 | 8.0 | 9.7 | 0.00 | 0.00 | 0.00 | 52 | 1013.2 |
| 20260503170531 | 15 | 261 | 4.8 | 9.7 | 0.00 | 0.00 | 0.00 | 53 | 1013.4 |
| 20260503150526 | 13 | 114 | 0.0 | 9.7 | 0.00 | 0.00 | 0.00 | 58 | 1014.2 |
| 20260503131012 | 6 | 16 | 1.6 | 6.4 | 0.00 | 0.00 | 0.00 | 64 | 1014.9 |
| 20260503130511 | 6 | 57 | 3.2 | 6.4 | 0.00 | 0.00 | 0.00 | 64 | 1015.1 |
| 20260503110720 | 2 | 77 | 1.6 | 4.8 | 0.00 | 0.00 | 0.00 | 66 | 1014.5 |
| 20260503081449 | 2 | 70 | 1.6 | 3.2 | 0.00 | 0.00 | 0.00 | 67 | 1015.4 |
| 20260503080949 | 2 | 125 | 3.2 | 3.2 | 0.00 | 0.00 | 0.00 | 67 | 1015.5 |
| 20260503080448 | 2 | 89 | 0.0 | 3.2 | 0.00 | 0.00 | 0.00 | 67 | 1015.5 |
| 20260503072455 | 2 | 87 | 1.6 | 3.2 | 0.00 | 0.00 | 0.00 | 68 | 1015.4 |
| 20260503071946 | 2 | 89 | 1.6 | 3.2 | 0.00 | 0.00 | 0.00 | 68 | 1015.6 |
| 20260503071445 | 2 | 86 | 1.6 | 3.2 | 0.00 | 0.00 | 0.00 | 69 | 1015.5 |
| 20260503070946 | 1 | 89 | 3.2 | 3.2 | 0.00 | 0.00 | 0.00 | 69 | 1015.6 |
| 20260503070703 | 1 | 104 | 1.6 | 3.2 | 0.00 | 0.00 | 0.00 | 69 | 1015.6 |
| 20260503054942 | 1 | 83 | 1.6 | 3.2 | 0.00 | 0.00 | 0.00 | 68 | 1016.0 |
| 20260503054442 | 1 | 91 | 1.6 | 3.2 | 0.00 | 0.00 | 0.00 | 68 | 1016.1 |
| 20260503053947 | 1 | 93 | 1.6 | 3.2 | 0.00 | 0.00 | 0.00 | 68 | 1016.1 |
| 20260503053440 | 1 | 94 | 1.6 | 3.2 | 0.00 | 0.00 | 0.00 | 68 | 1016.1 |
| 20260503052942 | 1 | 99 | 1.6 | 3.2 | 0.00 | 0.00 | 0.00 | 68 | 1016.1 |
| 20260503052440 | 1 | 97 | 1.6 | 3.2 | 0.00 | 0.00 | 0.00 | 67 | 1016.2 |
| 20260503051941 | 1 | 91 | 1.6 | 3.2 | 0.00 | 0.00 | 0.00 | 67 | 1016.2 |
| 20260503051440 | 1 | 93 | 0.0 | 1.6 | 0.00 | 0.00 | 0.00 | 67 | 1016.0 |
| 20260503051046 | 1 | 69 | 0.0 | 1.6 | 0.00 | 0.00 | 0.00 | 67 | 1016.0 |
| 20260503045940 | 1 | 76 | 0.0 | 1.6 | 0.00 | 0.00 | 0.00 | 67 | 1016.3 |
| 20260503045439 | 1 | 69 | 0.0 | 1.6 | 0.00 | 0.00 | 0.00 | 67 | 1016.2 |
| 20260503044940 | 1 | 91 | 1.6 | 1.6 | 0.00 | 0.00 | 0.00 | 67 | 1016.4 |
| 20260503044439 | 2 | 103 | 0.0 | 1.6 | 0.00 | 0.00 | 0.00 | 66 | 1016.3 |
| 20260503043940 | 2 | 86 | 0.0 | 3.2 | 0.00 | 0.00 | 0.00 | 66 | 1016.4 |
| 20260503043710 | 2 | 73 | 0.0 | 3.2 | 0.00 | 0.00 | 0.00 | 66 | 1016.2 |
| 20260503043200 | 2 | 82 | 1.6 | 3.2 | 0.00 | 0.00 | 0.00 | 66 | 1016.3 |
| 20260503042437 | 2 | 77 | 1.6 | 3.2 | 0.00 | 0.00 | 0.00 | 66 | 1016.4 |
| 20260503041938 | 2 | 88 | 1.6 | 3.2 | 0.00 | 0.00 | 0.00 | 65 | 1016.3 |
| 20260503041437 | 2 | 97 | 1.6 | 3.2 | 0.00 | 0.00 | 0.00 | 65 | 1016.2 |
| 20260503040937 | 2 | 84 | 1.6 | 3.2 | 0.00 | 0.00 | 0.00 | 65 | 1016.4 |
| 20260503040436 | 2 | 94 | 1.6 | 3.2 | 0.00 | 0.00 | 0.00 | 65 | 1016.5 |
| 20260503035940 | 2 | 89 | 1.6 | 3.2 | 0.00 | 0.00 | 0.00 | 65 | 1016.4 |
| 20260503035435 | 2 | 94 | 1.6 | 3.2 | 0.00 | 0.00 | 0.00 | 65 | 1016.3 |
| 20260503034936 | 2 | 97 | 1.6 | 3.2 | 0.00 | 0.00 | 0.00 | 64 | 1016.5 |
| 20260503034435 | 2 | 93 | 1.6 | 1.6 | 0.00 | 0.00 | 0.00 | 64 | 1016.6 |
| 20260503033936 | 2 | 96 | 1.6 | 1.6 | 0.00 | 0.00 | 0.00 | 64 | 1016.5 |
| 20260503033654 | 2 | 89 | 0.0 | 1.6 | 0.00 | 0.00 | 0.00 | 64 | 1016.3 |
| 20260503032937 | 2 | 89 | 0.0 | 1.6 | 0.00 | 0.00 | 0.00 | 63 | 1016.6 |
| 20260503032434 | 2 | 103 | 0.0 | 0.0 | 0.00 | 0.00 | 0.00 | 63 | 1016.7 |
| 20260503031936 | 3 | 103 | 0.0 | 0.0 | 0.00 | 0.00 | 0.00 | 63 | 1016.6 |
| 20260503031434 | 3 | 103 | 0.0 | 1.6 | 0.00 | 0.00 | 0.00 | 62 | 1016.5 |
| 20260503030935 | 3 | 113 | 0.0 | 3.2 | 0.00 | 0.00 | 0.00 | 62 | 1016.5 |
| 20260503030433 | 3 | 87 | 0.0 | 3.2 | 0.00 | 0.00 | 0.00 | 62 | 1016.7 |
| 20260503025942 | 3 | 100 | 1.6 | 3.2 | 0.00 | 0.00 | 0.00 | 62 | 1016.6 |
| 20260503025433 | 3 | 86 | 1.6 | 3.2 | 0.00 | 0.00 | 0.00 | 61 | 1016.9 |
| 20260503024934 | 3 | 78 | 1.6 | 3.2 | 0.00 | 0.00 | 0.00 | 61 | 1016.5 |
| 20260503024432 | 3 | 81 | 1.6 | 3.2 | 0.00 | 0.00 | 0.00 | 61 | 1016.7 |
| 20260503023934 | 3 | 97 | 1.6 | 3.2 | 0.00 | 0.00 | 0.00 | 60 | 1016.7 |
| 20260503023432 | 4 | 104 | 1.6 | 3.2 | 0.00 | 0.00 | 0.00 | 60 | 1016.6 |
| 20260503022945 | 4 | 89 | 1.6 | 3.2 | 0.00 | 0.00 | 0.00 | 60 | 1016.7 |
| 20260503022912 | 4 | 93 | 1.6 | 3.2 | 0.00 | 0.00 | 0.00 | 60 | 1016.6 |
| 20260503021933 | 4 | 86 | 1.6 | 3.2 | 0.00 | 0.00 | 0.00 | 59 | 1016.5 |
| 20260503021432 | 5 | 87 | 1.6 | 3.2 | 0.00 | 0.00 | 0.00 | 59 | 1016.4 |
| 20260503020933 | 5 | 105 | 0.0 | 3.2 | 0.00 | 0.00 | 0.00 | 59 | 1016.6 |
| 20260503020431 | 5 | 107 | 1.6 | 3.2 | 0.00 | 0.00 | 0.00 | 58 | 1016.5 |
| 20260503020200 | 5 | 92 | 1.6 | 3.2 | 0.00 | 0.00 | 0.00 | 58 | 1016.4 |
| 20260503015436 | 5 | 94 | 1.6 | 3.2 | 0.00 | 0.00 | 0.00 | 57 | 1016.4 |
| 20260503014934 | 5 | 97 | 1.6 | 3.2 | 0.00 | 0.00 | 0.00 | 57 | 1016.2 |
| 20260503014926 | 5 | 97 | 1.6 | 3.2 | 0.00 | 0.00 | 0.00 | 57 | 1016.6 |
| 20260503013931 | 6 | 104 | 1.6 | 3.2 | 0.00 | 0.00 | 0.00 | 56 | 1016.3 |
| 20260503013429 | 6 | 97 | 1.6 | 3.2 | 0.00 | 0.00 | 0.00 | 56 | 1016.4 |
| 20260503012931 | 6 | 96 | 1.6 | 3.2 | 0.00 | 0.00 | 0.00 | 56 | 1016.4 |
| 20260503012429 | 6 | 82 | 1.6 | 3.2 | 0.00 | 0.00 | 0.00 | 56 | 1016.3 |
| 20260503011936 | 6 | 89 | 0.0 | 3.2 | 0.00 | 0.00 | 0.00 | 56 | 1016.0 |
| 20260503011429 | 6 | 89 | 0.0 | 3.2 | 0.00 | 0.00 | 0.00 | 55 | 1016.3 |
| 20260503010929 | 6 | 94 | 1.6 | 3.2 | 0.00 | 0.00 | 0.00 | 55 | 1016.5 |
| 20260503010652 | 6 | 89 | 0.0 | 3.2 | 0.00 | 0.00 | 0.00 | 55 | 1016.2 |
| 20260503005929 | 6 | 89 | 1.6 | 3.2 | 0.00 | 0.00 | 0.00 | 54 | 1016.4 |
| 20260503005427 | 7 | 85 | 1.6 | 3.2 | 0.00 | 0.00 | 0.00 | 53 | 1016.3 |
| 20260503004940 | 7 | 88 | 1.6 | 3.2 | 0.00 | 0.00 | 0.00 | 53 | 1016.1 |
| 20260503004429 | 7 | 89 | 1.6 | 3.2 | 0.00 | 0.00 | 0.00 | 53 | 1016.2 |
| 20260503003929 | 7 | 97 | 1.6 | 3.2 | 0.00 | 0.00 | 0.00 | 52 | 1016.4 |
| 20260503003646 | 7 | 112 | 0.0 | 3.2 | 0.00 | 0.00 | 0.00 | 52 | 1016.1 |
| 20260503003147 | 7 | 89 | 1.6 | 3.2 | 0.00 | 0.00 | 0.00 | 52 | 1016.2 |
| 20260503002426 | 7 | 82 | 1.6 | 3.2 | 0.00 | 0.00 | 0.00 | 52 | 1016.3 |
| 20260503001928 | 8 | 108 | 1.6 | 3.2 | 0.00 | 0.00 | 0.00 | 52 | 1016.1 |
| 20260503001433 | 8 | 79 | 0.0 | 3.2 | 0.00 | 0.00 | 0.00 | 51 | 1016.1 |
| 20260503000927 | 8 | 87 | 1.6 | 4.8 | 0.00 | 0.00 | 0.00 | 51 | 1016.3 |
| 20260503000645 | 8 | 87 | 0.0 | 4.8 | 0.00 | 0.00 | 0.00 | 51 | 1016.3 |
| 20260503000150 | 8 | 30 | 0.0 | 3.2 | 0.00 | 0.00 | 0.00 | 51 | 1016.2 |
| 20260502235643 | 8 | 92 | 0.0 | 4.8 | 0.00 | 0.00 | 0.00 | 50 | 1016.3 |
| 20260502234925 | 8 | 116 | 1.6 | 4.8 | 0.00 | 0.00 | 0.00 | 50 | 1016.1 |
| 20260502234423 | 8 | 60 | 3.2 | 4.8 | 0.00 | 0.00 | 0.00 | 50 | 1016.1 |
| 20260502233930 | 8 | 218 | 1.6 | 3.2 | 0.00 | 0.00 | 0.00 | 51 | 1016.2 |
| 20260502233422 | 8 | 77 | 1.6 | 4.8 | 0.00 | 0.00 | 0.00 | 51 | 1016.4 |
| 20260502232923 | 8 | 77 | 1.6 | 4.8 | 0.00 | 0.00 | 0.00 | 51 | 1016.0 |
| 20260502232422 | 8 | 105 | 0.0 | 3.2 | 0.00 | 0.00 | 0.00 | 50 | 1015.9 |
| 20260502231923 | 8 | 72 | 1.6 | 4.8 | 0.00 | 0.00 | 0.00 | 50 | 1016.4 |
| 20260502231432 | 8 | 217 | 0.0 | 4.8 | 0.00 | 0.00 | 0.00 | 50 | 1016.4 |
| 20260502231153 | 8 | 153 | 3.2 | 4.8 | 0.00 | 0.00 | 0.00 | 50 | 1016.5 |
| 20260502230420 | 8 | 63 | 0.0 | 3.2 | 0.00 | 0.00 | 0.00 | 50 | 1016.4 |
| 20260502225922 | 8 | 99 | 3.2 | 3.2 | 0.00 | 0.00 | 0.00 | 50 | 1016.5 |
| 20260502225420 | 8 | 117 | 0.0 | 3.2 | 0.00 | 0.00 | 0.00 | 50 | 1016.4 |
| 20260502224921 | 8 | 80 | 1.6 | 4.8 | 0.00 | 0.00 | 0.00 | 50 | 1016.3 |
| 20260502224419 | 8 | 46 | 3.2 | 4.8 | 0.00 | 0.00 | 0.00 | 50 | 1016.1 |
| 20260502223920 | 8 | 47 | 3.2 | 4.8 | 0.00 | 0.00 | 0.00 | 50 | 1016.3 |
| 20260502223426 | 8 | 135 | 0.0 | 6.4 | 0.00 | 0.00 | 0.00 | 50 | 1016.4 |
| 20260502222921 | 8 | 108 | 1.6 | 6.4 | 0.00 | 0.00 | 0.00 | 50 | 1016.4 |
| 20260502222644 | 8 | 55 | 3.2 | 6.4 | 0.00 | 0.00 | 0.00 | 49 | 1016.5 |
| 20260502221919 | 9 | 47 | 3.2 | 6.4 | 0.00 | 0.00 | 0.00 | 49 | 1016.4 |
| 20260502221418 | 9 | 62 | 0.0 | 6.4 | 0.00 | 0.00 | 0.00 | 49 | 1016.5 |
| 20260502220919 | 9 | 151 | 0.0 | 6.4 | 0.00 | 0.00 | 0.00 | 50 | 1016.2 |
| 20260502220416 | 9 | 108 | 3.2 | 4.8 | 0.00 | 0.00 | 0.00 | 50 | 1016.5 |
| 20260502215929 | 8 | 59 | 3.2 | 4.8 | 0.00 | 0.00 | 0.00 | 50 | 1016.4 |
| 20260502215417 | 8 | 33 | 3.2 | 8.0 | 0.00 | 0.00 | 0.00 | 50 | 1016.3 |
| 20260502214943 | 9 | 51 | 4.8 | 8.0 | 0.00 | 0.00 | 0.00 | 50 | 1016.3 |
| 20260502214415 | 9 | 94 | 6.4 | 8.0 | 0.00 | 0.00 | 0.00 | 50 | 1016.1 |
| 20260502213916 | 9 | 56 | 1.6 | 4.8 | 0.00 | 0.00 | 0.00 | 49 | 1016.4 |
| 20260502213415 | 9 | 15 | 3.2 | 6.4 | 0.00 | 0.00 | 0.00 | 49 | 1016.4 |
| 20260502212916 | 9 | 88 | 3.2 | 6.4 | 0.00 | 0.00 | 0.00 | 49 | 1016.5 |
| 20260502212637 | 9 | 62 | 0.0 | 9.7 | 0.00 | 0.00 | 0.00 | 49 | 1016.4 |
| 20260502211915 | 9 | 51 | 3.2 | 9.7 | 0.00 | 0.00 | 0.00 | 49 | 1016.4 |
| 20260502211413 | 9 | 63 | 1.6 | 8.0 | 0.00 | 0.00 | 0.00 | 49 | 1016.3 |
| 20260502211354 | 9 | 103 | 1.6 | 4.8 | 0.00 | 0.00 | 0.00 | 49 | 1016.4 |
| 20260502210412 | 9 | 271 | 3.2 | 4.8 | 0.00 | 0.00 | 0.00 | 49 | 1016.6 |
| 20260502205909 | 9 | 227 | 0.0 | 4.8 | 0.00 | 0.00 | 0.00 | 49 | 1016.4 |
| 20260502205412 | 9 | 102 | 0.0 | 6.4 | 0.00 | 0.00 | 0.00 | 49 | 1016.4 |
| 20260502205128 | 9 | 50 | 3.2 | 6.4 | 0.00 | 0.00 | 0.00 | 49 | 1016.5 |
| 20260502204407 | 9 | 159 | 1.6 | 6.4 | 0.00 | 0.00 | 0.00 | 50 | 1016.6 |
| 20260502203910 | 9 | 86 | 3.2 | 6.4 | 0.00 | 0.00 | 0.00 | 51 | 1016.6 |
| 20260502203410 | 9 | 95 | 1.6 | 6.4 | 0.00 | 0.00 | 0.00 | 51 | 1016.6 |